Terminal Aerodrome Forecast
Issued by NWS Sioux Falls, SD

Home | Current Version | Previous Version | Graphics & Text | Print | Product List | Glossary On
Versions: 1 2 3 4 5 6 7 8 9 10 11 12 13 14 15 16
023
FTUS43 KFSD 252004 AAA
TAFFSD
TAF AMD
KFSD 252004Z 2520/2618 30019G27KT P6SM BKN050
     FM252100 30016G26KT P6SM SCT050
     FM260030 29009KT P6SM SKC
     FM261600 30014G19KT P6SM SKC=

USA.gov is the U.S. government's official web portal to all federal, state and local government web resources and services.